Wind_Speed
21 21 20 20 20 20 20 20 20 20 21 21 21 21 20 19 19 19 20 19 19 19 19 19 19 19 18 18 17 17 17 17 16 16 16 15 15 15 16 16 16 16 16 15
21 21 21 21 21 21 21 21 21 22 22 22 21 21 20 19 19 20 20 19 20 20 20 20 19 19 19 18 18 18 17 17 17 16 16 16 16 16 16 16 16 16 15 14
22 22 22 22 22 22 22 21 22 23 23 21 21 21 20 19 19 20 20 19 20 20 20 19 19 18 18 18 18 18 18 17 17 17 17 17 16 16 16 17 17 17 16 15
23 23 22 22 22 22 22 22 23 23 22 20 20 20 19 19 19 19 19 19 20 20 20 19 19 18 18 18 18 19 19 18 18 18 18 17 17 17 17 17 17 17 17 16
22 23 22 22 22 22 21 21 22 22 22 21 20 20 18 19 18 18 18 19 20 19 20 20 19 19 18 18 18 18 18 19 19 19 18 18 18 18 18 18 18 19 19 18
23 23 23 22 21 21 21 21 21 21 21 22 20 21 19 19 19 17 17 19 19 20 20 20 20 20 20 19 19 19 19 19 19 19 19 18 18 18 18 18 19 19 20 19
23 23 23 22 21 21 21 20 20 20 20 21 21 21 20 20 19 18 18 19 19 20 21 22 22 21 20 20 20 20 20 20 19 19 19 19 19 19 20 20 20 20 20 21
23 22 23 23 22 22 22 21 21 21 20 20 21 22 21 20 19 19 19 20 20 21 21 21 21 21 21 21 21 21 21 20 20 20 20 20 20 20 20 21 21 21 21 21
24 24 24 24 23 23 23 23 23 23 22 21 21 22 21 21 19 19 20 21 21 21 21 21 21 20 21 21 21 21 21 21 22 22 22 21 21 21 22 22 22 23 22 22
26 26 25 25 24 24 25 25 24 23 23 23 22 22 21 21 19 19 20 21 21 21 22 21 21 21 21 21 21 21 21 22 23 23 22 23 23 23 23 23 23 23 23 23
27 27 26 26 25 24 25 25 25 25 25 24 23 22 21 20 20 20 21 21 21 22 22 21 21 21 22 22 21 21 21 22 23 23 23 23 23 23 24 24 24 23 23 24
28 28 27 27 26 26 26 27 27 26 25 25 24 23 21 21 20 20 20 21 21 21 22 22 22 22 22 22 22 21 22 23 23 24 24 23 24 24 25 24 24 23 24 24
27 28 26 25 24 25 26 27 27 27 26 25 24 23 22 22 21 21 20 20 21 21 21 22 23 23 22 22 22 22 22 23 24 24 24 24 24 24 24 24 24 24 25 25
25 26 26 26 25 25 26 27 28 27 26 26 25 24 23 23 22 22 21 21 21 21 21 22 22 22 22 22 22 22 23 23 24 23 23 23 23 23 24 24 25 25 25 25
25 25 25 26 26 26 27 27 27 28 27 27 26 25 24 24 24 24 23 23 22 22 21 21 22 22 22 22 22 22 23 24 24 23 24 24 24 24 25 25 25 25 25 25
24 24 25 26 26 27 28 28 27 28 28 27 27 26 25 24 24 24 25 24 23 23 23 22 22 21 22 22 23 23 23 24 24 25 24 24 24 25 26 26 25 26 25 25
23 23 24 25 25 27 29 28 28 28 28 27 27 26 25 24 24 24 24 24 23 23 23 23 23 22 22 22 23 23 23 23 24 24 24 25 25 26 26 26 26 26 26 26
23 23 23 24 25 28 28 26 27 27 27 27 27 26 24 24 24 24 24 23 23 22 23 23 22 22 22 23 23 23 23 23 23 23 24 24 25 26 27 27 26 27 27 27
24 24 23 24 25 27 26 25 26 26 26 26 26 26 24 24 24 25 24 24 24 23 23 24 23 22 22 23 23 23 23 23 23 23 23 24 25 25 26 26 26 26 26 26
24 23 24 23 24 25 25 25 24 25 26 25 25 24 24 24 25 25 25 24 24 24 23 23 22 22 22 23 23 23 23 23 23 23 24 24 25 26 26 25 25 24 24 24
23 23 23 24 24 25 26 25 24 25 25 25 25 24 24 24 24 25 25 25 24 24 24 22 22 23 23 23 23 23 23 22 23 23 24 25 26 26 26 26 25 25 25 26
22 23 23 24 24 25 24 25 25 26 26 25 25 25 25 24 25 25 25 25 24 24 23 22 22 23 22 23 23 23 23 23 24 24 25 26 26 26 26 26 26 26 26 27
21 21 21 23 24 24 25 25 26 26 26 26 26 26 25 25 25 25 25 25 25 24 24 23 23 22 22 22 23 23 23 24 25 26 26 27 26 26 26 26 26 26 27 27
22 21 21 22 22 23 24 25 25 26 26 26 25 25 25 25 25 25 26 25 25 24 23 23 23 23 23 24 24 25 25 25 25 26 26 26 27 26 26 26 27 27 26 26
20 22 21 21 21 23 23 23 24 25 26 26 25 24 24 25 25 26 26 26 25 25 25 24 24 24 25 25 25 25 25 25 25 25 25 26 26 26 26 26 26 25 25 26
19 20 21 22 21 22 23 24 25 25 24 25 25 25 25 25 25 25 25 25 25 25 25 25 25 25 25 24 25 25 25 25 25 25 25 24 25 25 25 25 24 24 24 25
Wind_Direction
255 257 259 261 263 264 266 266 267 268 268 269 270 270 271 272 272 275 277 276 273 274 277 275 276 279 278 276 276 278 279 280 281 281 282 281 278 279 280 279 279 281 279 278
254 257 259 261 262 263 263 265 266 267 267 268 270 270 272 272 272 274 275 273 273 274 277 278 277 279 276 274 276 280 281 279 280 280 279 277 275 276 277 276 276 280 279 276
255 258 258 260 264 264 263 263 263 266 268 269 271 272 272 272 272 274 275 275 275 275 276 276 277 280 278 274 275 278 278 276 276 278 279 279 276 275 275 275 277 280 280 277
254 256 258 259 262 265 264 263 263 264 266 267 270 271 273 275 273 274 275 275 275 274 274 276 277 278 278 276 275 276 275 274 275 276 276 277 274 273 275 274 276 279 282 280
258 258 259 259 261 263 263 262 261 262 265 265 267 271 273 276 276 275 276 275 273 273 275 277 278 277 277 277 276 278 277 278 276 273 274 274 274 271 273 274 277 280 281 281
258 258 258 258 258 259 259 259 260 262 264 265 266 270 271 275 278 278 277 277 275 275 276 278 277 276 277 277 277 278 278 276 275 273 272 274 276 274 272 274 274 277 280 280
258 258 258 257 256 256 256 256 258 259 260 265 268 268 270 274 277 278 276 276 275 276 278 279 277 276 276 274 274 275 275 273 272 273 274 275 276 274 271 274 274 277 278 279
256 255 255 254 254 254 254 253 252 256 261 265 268 268 271 274 276 278 279 278 276 276 279 280 277 275 275 274 273 273 271 271 272 272 273 274 276 275 273 273 274 277 276 277
254 253 254 254 253 253 254 253 254 259 264 267 268 272 271 273 275 277 279 280 279 278 280 279 276 275 275 275 273 273 272 272 273 273 272 273 274 275 273 271 272 274 274 276
253 253 254 255 255 254 252 254 255 256 260 265 269 271 271 274 278 278 280 280 280 279 279 278 276 274 272 273 273 273 271 272 274 273 274 276 272 272 271 270 270 273 274 276
251 252 253 255 254 253 254 252 254 256 260 264 268 268 272 273 276 280 282 281 281 279 277 277 275 273 273 272 273 274 274 272 272 272 273 274 270 271 270 270 269 271 273 275
251 250 252 255 254 253 254 254 255 256 260 264 267 269 272 273 277 280 281 280 280 279 275 275 274 273 273 273 273 275 276 276 273 273 274 274 272 272 272 273 271 272 274 275
251 250 252 254 255 256 254 254 255 256 259 262 265 266 272 275 276 278 279 280 280 278 276 276 275 273 273 274 274 276 278 277 275 274 275 274 272 271 271 273 274 275 276 276
250 250 250 250 250 253 253 253 254 256 258 260 262 264 269 271 273 274 275 276 277 279 278 276 276 276 275 275 276 277 278 278 277 276 277 274 272 273 272 272 275 278 278 277
249 251 251 251 251 253 254 254 254 255 257 260 262 265 268 269 270 272 273 275 276 278 278 277 277 277 275 274 277 278 278 278 277 277 277 275 274 276 273 274 278 280 279 278
250 251 253 254 253 254 255 255 255 256 257 260 263 265 267 266 268 270 273 275 275 277 278 278 278 277 275 275 276 277 277 277 277 277 276 275 275 276 275 277 277 278 279 279
249 252 256 256 255 256 255 254 255 257 259 261 262 263 265 264 266 269 272 273 274 277 278 279 279 278 276 276 278 278 278 277 275 274 275 276 275 276 276 275 277 277 279 280
248 253 256 257 256 255 259 257 255 256 258 259 258 260 262 264 266 268 271 272 274 276 278 278 278 277 276 275 275 276 278 276 275 275 277 278 277 277 278 277 277 278 280 281
249 251 253 255 257 260 261 258 258 260 261 259 260 261 260 262 266 267 268 270 273 275 277 278 279 276 277 277 275 275 275 275 275 277 279 281 281 281 281 280 278 279 280 281
250 251 253 255 258 261 262 261 260 261 260 259 262 262 260 263 265 265 267 270 271 272 274 275 275 275 276 277 276 275 273 274 275 276 279 281 281 281 281 279 278 278 280 283
250 251 254 257 260 262 261 261 260 259 260 260 261 262 261 263 264 264 265 268 270 271 272 273 273 274 275 276 277 277 276 274 275 277 278 280 282 281 280 278 279 279 282 285
251 253 254 256 259 261 262 261 260 261 262 261 259 260 262 262 262 262 263 266 270 271 271 271 273 274 274 275 276 277 277 276 277 279 282 283 283 282 281 281 281 281 283 284
253 255 258 258 260 261 261 261 261 261 262 261 260 261 262 262 262 261 261 264 267 270 270 271 272 274 274 276 277 279 279 280 281 283 285 286 285 284 283 282 281 281 283 284
255 256 258 259 258 259 260 261 263 261 261 260 261 263 263 263 261 260 260 263 266 268 269 270 270 271 274 277 279 281 281 283 285 287 287 287 286 285 283 282 281 281 281 282
257 258 257 260 259 259 262 264 263 262 261 262 261 262 263 264 262 261 261 262 263 265 266 267 269 271 274 277 279 281 283 283 285 288 288 287 285 283 283 284 283 282 281 281
261 260 260 261 264 264 264 264 263 262 264 263 262 262 261 263 263 262 262 263 264 265 267 269 270 272 275 277 279 281 284 285 286 290 291 290 287 286 284 284 285 283 284 287
Height
5860 5862 5863 5864 5865 5865 5865 5866 5866 5866 5865 5865 5864 5864 5865 5864 5863 5862 5861 5860 5860 5859 5858 5857 5856 5855 5855 5854 5853 5853 5852 5851 5851 5850 5849 5848 5847 5846 5846 5845 5845 5844 5844 5843
5856 5857 5859 5859 5859 5860 5860 5860 5861 5861 5860 5860 5860 5860 5860 5859 5859 5858 5857 5856 5855 5854 5853 5853 5852 5851 5850 5849 5849 5848 5848 5847 5846 5846 5844 5843 5842 5842 5841 5841 5840 5840 5839 5839
5851 5853 5853 5853 5854 5854 5855 5855 5856 5855 5854 5855 5855 5855 5855 5855 5854 5853 5852 5851 5850 5849 5849 5848 5847 5847 5846 5845 5845 5844 5844 5843 5842 5841 5840 5839 5838 5838 5838 5837 5836 5836 5835 5834
5845 5846 5847 5848 5848 5849 5849 5849 5849 5849 5849 5850 5851 5851 5851 5850 5849 5848 5847 5846 5846 5845 5844 5844 5843 5843 5842 5841 5840 5840 5839 5838 5838 5837 5836 5835 5834 5833 5833 5832 5832 5831 5831 5830
5839 5840 5841 5842 5843 5843 5843 5843 5843 5843 5843 5844 5845 5846 5848 5845 5844 5844 5843 5842 5841 5840 5840 5839 5839 5838 5837 5836 5836 5835 5834 5834 5833 5832 5832 5831 5830 5829 5828 5828 5828 5827 5826 5826
5833 5834 5834 5836 5837 5837 5837 5838 5838 5838 5839 5840 5841 5841 5842 5841 5840 5839 5839 5837 5836 5835 5835 5834 5834 5833 5832 5832 5831 5830 5829 5829 5828 5827 5827 5826 5825 5825 5824 5823 5822 5822 5821 5821
5827 5827 5828 5829 5830 5831 5831 5833 5835 5835 5836 5836 5836 5835 5836 5835 5835 5834 5833 5832 5831 5830 5830 5829 5828 5828 5827 5827 5826 5825 5824 5823 5823 5822 5822 5821 5820 5820 5819 5818 5817 5817 5816 5816
5821 5822 5822 5823 5824 5825 5826 5828 5830 5831 5832 5833 5831 5830 5832 5830 5829 5829 5828 5827 5826 5825 5824 5823 5822 5822 5821 5821 5820 5819 5819 5818 5817 5817 5817 5816 5815 5814 5814 5813 5813 5812 5811 5810
5814 5816 5816 5817 5818 5820 5820 5821 5824 5825 5825 5826 5826 5825 5825 5824 5824 5823 5823 5821 5820 5819 5818 5818 5817 5816 5816 5815 5814 5814 5813 5812 5812 5811 5811 5810 5810 5809 5808 5808 5807 5806 5806 5805
5806 5808 5810 5810 5812 5813 5815 5816 5817 5818 5819 5820 5821 5820 5820 5819 5818 5818 5817 5815 5815 5814 5812 5812 5811 5810 5810 5809 5809 5808 5807 5807 5806 5805 5804 5804 5804 5803 5802 5802 5801 5800 5799 5799
5799 5801 5803 5804 5804 5807 5808 5809 5810 5812 5813 5813 5814 5817 5814 5812 5812 5812 5811 5810 5809 5808 5807 5806 5805 5804 5804 5803 5803 5802 5801 5800 5799 5799 5798 5797 5797 5797 5796 5795 5794 5794 5793 5792
5791 5793 5795 5797 5799 5800 5801 5802 5803 5805 5806 5806 5807 5811 5807 5806 5806 5805 5805 5804 5803 5802 5801 5800 5799 5799 5798 5797 5797 5796 5795 5793 5793 5792 5791 5791 5790 5789 5789 5788 5788 5787 5786 5785
5783 5785 5788 5790 5793 5793 5793 5795 5796 5797 5799 5799 5800 5804 5800 5799 5799 5799 5798 5797 5796 5796 5795 5794 5793 5792 5792 5791 5790 5789 5788 5787 5786 5785 5784 5784 5783 5783 5782 5781 5781 5780 5779 5778
5776 5778 5781 5783 5785 5785 5786 5787 5788 5790 5791 5792 5793 5794 5794 5792 5793 5793 5792 5791 5790 5789 5789 5788 5787 5786 5785 5784 5783 5782 5781 5780 5779 5778 5778 5777 5776 5775 5775 5774 5774 5773 5772 5771
5768 5771 5773 5775 5777 5778 5778 5780 5781 5782 5783 5784 5786 5786 5786 5786 5786 5786 5785 5785 5784 5783 5782 5782 5781 5780 5779 5778 5777 5776 5774 5773 5772 5772 5771 5770 5769 5769 5768 5768 5767 5766 5764 5763
5761 5764 5766 5767 5769 5770 5770 5772 5773 5774 5775 5776 5777 5778 5778 5778 5778 5778 5778 5778 5777 5776 5776 5775 5774 5773 5772 5771 5770 5769 5768 5767 5765 5765 5764 5763 5763 5762 5761 5760 5759 5758 5757 5756
5755 5757 5759 5760 5761 5761 5762 5764 5765 5766 5767 5768 5769 5771 5770 5771 5771 5771 5771 5771 5770 5769 5769 5768 5767 5766 5765 5764 5763 5762 5761 5760 5759 5758 5757 5757 5756 5755 5754 5753 5752 5751 5750 5749
5749 5750 5751 5753 5754 5753 5757 5757 5757 5758 5759 5760 5761 5762 5762 5763 5763 5763 5763 5763 5763 5762 5762 5761 5760 5759 5758 5757 5756 5755 5754 5753 5752 5751 5751 5750 5748 5748 5747 5745 5744 5743 5742 5741
5742 5744 5744 5745 5746 5746 5748 5749 5749 5750 5751 5752 5752 5753 5754 5755 5755 5755 5756 5756 5756 5755 5755 5754 5753 5752 5751 5750 5749 5748 5747 5747 5746 5745 5744 5743 5741 5740 5739 5737 5736 5735 5734 5732
5735 5737 5738 5739 5739 5739 5742 5741 5742 5744 5743 5744 5745 5745 5746 5747 5748 5749 5749 5748 5748 5747 5747 5746 5745 5744 5744 5743 5742 5741 5741 5740 5739 5738 5737 5736 5734 5733 5731 5730 5729 5728 5726 5725
5728 5730 5731 5732 5732 5733 5734 5734 5736 5737 5738 5738 5737 5738 5738 5739 5740 5741 5740 5740 5740 5740 5739 5738 5738 5737 5737 5736 5735 5735 5734 5733 5732 5731 5729 5728 5727 5725 5723 5722 5721 5720 5719 5718
5721 5723 5724 5725 5725 5728 5726 5727 5728 5729 5729 5729 5730 5730 5731 5731 5732 5732 5732 5732 5732 5732 5732 5731 5731 5730 5730 5729 5728 5728 5727 5726 5724 5723 5722 5720 5719 5717 5715 5714 5713 5712 5711 5710
5714 5716 5716 5718 5719 5719 5718 5719 5720 5720 5721 5721 5721 5722 5723 5723 5723 5724 5724 5724 5724 5724 5724 5724 5724 5723 5723 5722 5721 5721 5720 5718 5717 5715 5714 5712 5710 5709 5708 5706 5705 5704 5703 5701
5707 5708 5709 5709 5710 5710 5710 5711 5711 5712 5712 5713 5713 5714 5714 5715 5715 5715 5716 5716 5717 5717 5717 5717 5717 5716 5716 5715 5714 5713 5712 5711 5709 5707 5705 5703 5702 5700 5699 5698 5697 5695 5694 5693
5699 5700 5701 5701 5702 5702 5702 5703 5703 5704 5704 5704 5705 5706 5706 5707 5707 5708 5708 5708 5709 5709 5709 5709 5709 5709 5709 5708 5707 5706 5704 5703 5701 5699 5697 5695 5693 5692 5691 5690 5688 5687 5686 5684
5692 5692 5693 5694 5695 5695 5695 5695 5695 5696 5696 5696 5697 5697 5698 5699 5699 5700 5700 5701 5701 5701 5702 5702 5702 5702 5701 5701 5700 5698 5697 5695 5694 5692 5690 5688 5686 5684 5683 5681 5680 5679 5678 5676